Location: Plymouth
(43.7570°N, 71.6890°W)
Time: 20:36:57
(UTC-04:00)

Amateur Radio Satellites - All Passes

Search period start: 25 May 2016 20:06
Search period end: 26 May 2016 20:06
Location: Plymouth, 43.7570°N, 71.6890°W

Satellite Date Start Highest point End Downlink Frequencies (MHz)
Time Altitude Azimuth
PRISM 25 May 20:09:23 20:11:36 14° 91° (E) 20:13:49 437.425
FUNcube-1 25 May 20:12:07 20:14:44 16° 64° (ENE) 20:17:20 145.935
BEESAT 2 25 May 20:13:14 20:16:25 22° 43° (NE) 20:19:35 435.950
Cosmos 2504 25 May 20:30:10 20:33:52 14° 303° (WNW) 20:37:41 435.465 / 435.565
HO-68 25 May 20:30:16 20:37:17 58° 258° (WSW) 20:44:21 435.675
CANX-2 25 May 20:35:11 20:39:05 37° 263° (W) 20:43:01 2200.000
SEEDS 25 May 20:42:18 20:46:19 48° 261° (W) 20:50:24 437.485
DOVE 4 25 May 20:50:06 20:52:33 13° 272° (W) 20:54:58 437.250
DELFI C3 25 May 20:51:49 20:54:57 23° 67° (ENE) 20:58:06 145.870
BEESAT 3 25 May 20:52:04 20:56:03 80° 55° (NE) 20:59:59 437.485
Oscar 11 25 May 20:57:13 21:01:25 57° 74° (ENE) 21:05:40 145.826/435.025
CUBEBUG 2 25 May 21:02:27 21:06:51 66° 258° (WSW) 21:11:08 437.445
CUTE 1.7 + AOD 2 25 May 21:03:42 21:06:57 22° 267° (W) 21:10:15 437.475
STRAND 1 25 May 21:05:08 21:09:44 34° 293° (WNW) 21:14:20 437.568
ZACube-1 25 May 21:07:01 21:11:14 65° 75° (ENE) 21:15:24 437.345
RS-15 25 May 21:11:55 21:22:06 32° 338° (NNW) 21:32:43 29.354- 29.394
O/OREOS (USA 219) 25 May 21:17:31 21:19:53 14° 261° (W) 21:22:14 437.305
Cosmos 2499 25 May 21:23:19 21:27:51 18° 77° (ENE) 21:32:33 435.465 / 435.565
PCSat 25 May 21:24:52 21:26:13 11° 259° (WSW) 21:27:32 145.827
AIST 1 25 May 21:29:34 21:33:54 62° 95° (E) 21:38:16
COMPASS 1 25 May 21:33:55 21:36:54 19° 267° (W) 21:39:54 437.405
HUMSAT D 25 May 21:35:15 21:38:53 32° 70° (ENE) 21:42:31 437.325/437.525
UWE-3 25 May 21:36:11 21:40:15 40° 262° (W) 21:44:17 435.000/436.395/437.385
CINEMA 3 25 May 21:38:03 21:39:36 11° 271° (W) 21:41:08 145.822/145.860
AAUSAT CUBESAT 2 25 May 21:38:30 21:41:37 21° 267° (W) 21:44:47 437.432
DANDE 25 May 21:41:56 21:46:50 16° 55° (NE) 21:51:39 436.750
PRISM 25 May 21:43:09 21:47:14 53° 288° (WNW) 21:51:17 437.425
FUNcube-1 25 May 21:46:31 21:50:38 48° 261° (W) 21:54:42 145.935
GONETS M04 25 May 21:48:16 21:56:41 52° 89° (E) 22:05:04
BEESAT 2 25 May 21:50:39 21:54:26 42° 242° (WSW) 21:58:12 435.950
UNISAT 6 25 May 22:04:06 22:06:19 14° 91° (E) 22:08:31 437.425
AIST 2 25 May 22:04:09 22:07:28 22° 43° (NE) 22:10:46 435.215
CUSAT 1 25 May 22:07:49 22:15:03 36° 67° (ENE) 22:21:23 437.405
TIGRISAT 25 May 22:12:04 22:14:42 16° 92° (E) 22:17:19 435.000
ESTCUBE 1 25 May 22:16:33 22:19:52 21° 64° (ENE) 22:23:13 437.505/2401.250
ISS 25 May 22:23:50 22:26:58 46° 142° (SE) 22:30:08 145.825
DELFI C3 25 May 22:26:13 22:29:40 29° 264° (W) 22:33:12 145.870
PHONESAT 2.4 25 May 22:29:14 22:30:02 11° 150° (SSE) 22:30:51 2401.200-2431.200
Oscar 11 25 May 22:35:46 22:37:55 14° 270° (W) 22:40:05 145.826/435.025
ANTELSAT 25 May 22:44:00 22:47:59 36° 98° (E) 22:51:58 437.575/2403.000
CUBEBUG 1 25 May 22:46:07 22:49:53 28° 67° (ENE) 22:53:39 437.445
ZACube-1 25 May 22:46:29 22:47:56 11° 270° (W) 22:49:24 437.345
VELOX 1 25 May 22:47:15 22:51:04 28° 67° (ENE) 22:54:53 145.980
DX 1 25 May 22:49:35 22:53:12 26° 66° (ENE) 22:56:50 434.975-435.025
AIST 1 25 May 23:09:50 23:11:58 13° 293° (WNW) 23:14:05
HUMSAT D 25 May 23:11:23 23:14:34 22° 266° (W) 23:17:45 437.325/437.525
Cosmos 2499 25 May 23:12:33 23:19:46 84° 278° (W) 23:27:34 435.465 / 435.565
DUCHIFAT 1 25 May 23:15:29 23:17:27 13° 90° (E) 23:19:24 145.980
AISAT 25 May 23:22:18 23:26:44 68° 74° (ENE) 23:31:12 437.250
DANDE 25 May 23:22:59 23:31:24 65° 76° (ENE) 23:39:14 436.750
SPROUT 25 May 23:23:08 23:26:42 26° 67° (ENE) 23:30:17 437.525
RS-15 25 May 23:29:32 23:39:36 29° 13° (NNE) 23:49:50 29.354- 29.394
50 SAT 25 May 23:36:31 23:40:08 75° 258° (WSW) 23:43:48 437.505
UNISAT 6 25 May 23:39:10 23:43:22 56° 287° (WNW) 23:47:37 437.425
UKube-1 25 May 23:42:00 23:46:19 73° 74° (ENE) 23:50:40 .
AIST 2 25 May 23:42:11 23:46:10 46° 242° (WSW) 23:50:07 435.215
BUGSAT 1 25 May 23:43:05 23:44:32 12° 90° (E) 23:45:58 437.445
GONETS M04 25 May 23:45:46 23:53:45 37° 290° (WNW) 00:01:45
TIGRISAT 25 May 23:47:32 23:51:39 48° 288° (WNW) 23:55:49 435.000
POPSAT HIP 1 25 May 23:49:39 23:53:28 33° 97° (E) 23:57:17 437.405
CUSAT 1 25 May 23:49:52 23:57:27 51° 269° (W) 00:03:56 437.405
QB50P1 25 May 23:50:14 23:54:06 34° 97° (E) 23:57:57 145.935-145.965
QB50P2 25 May 23:51:43 23:55:40 38° 98° (E) 23:59:35 145.880/145.840
ESTCUBE 1 25 May 23:52:05 23:56:23 44° 261° (W) 00:00:44 437.505/2401.250
JAS-2 25 May 23:53:31 23:55:41 11° 80° (E) 23:57:49 435.910
POLYITAN 1 25 May 23:54:09 23:58:06 39° 98° (E) 00:02:02 437.675
TISAT 1 25 May 23:56:01 23:58:51 18° 64° (ENE) 00:01:41 437.305
ISS 26 May 00:00:31 00:03:31 32° 340° (NNW) 00:06:31 145.825
PHONESAT 2.4 26 May 00:03:22 00:06:13 32° 166° (SSE) 00:09:04 2401.200-2431.200
NANOSAT C BR1 26 May 00:09:44 00:13:52 55° 100° (E) 00:17:57 145.865
ANTELSAT 26 May 00:21:12 00:24:30 22° 294° (WNW) 00:27:49 437.575/2403.000
CUBEBUG 1 26 May 00:22:10 00:26:04 30° 264° (W) 00:30:00 437.445
VELOX 1 26 May 00:23:33 00:27:27 30° 264° (W) 00:31:24 145.980
DX 1 26 May 00:25:20 00:29:16 32° 263° (W) 00:33:14 434.975-435.025
DUCHIFAT 1 26 May 00:49:24 00:53:30 56° 287° (WNW) 00:57:35 145.980
SO-50 26 May 00:56:36 01:01:21 52° 119° (ESE) 01:06:08 436.795
SPROUT 26 May 00:58:46 01:02:33 30° 264° (W) 01:06:22 437.525
AISAT 26 May 01:01:47 01:03:40 12° 270° (W) 01:05:35 437.250
DANDE 26 May 01:06:36 01:13:42 32° 275° (W) 01:20:24 436.750
Cosmos 2499 26 May 01:09:55 01:14:20 16° 302° (WNW) 01:18:57 435.465 / 435.565
SWISSCUBE 26 May 01:13:36 01:17:33 27° 66° (ENE) 01:21:33 437.505
BUGSAT 1 26 May 01:16:18 01:20:19 59° 286° (WNW) 01:24:15 437.445
ITUPSAT 1 26 May 01:18:38 01:22:35 27° 66° (ENE) 01:26:34 437.325
UKube-1 26 May 01:21:46 01:22:52 11° 271° (W) 01:23:58 .
POPSAT HIP 1 26 May 01:25:49 01:29:05 22° 294° (WNW) 01:32:21 437.405
QB50P1 26 May 01:26:28 01:29:42 22° 294° (WNW) 01:32:54 145.935-145.965
QB50P2 26 May 01:28:07 01:31:14 20° 295° (WNW) 01:34:19 145.880/145.840
TISAT 1 26 May 01:30:06 01:34:10 45° 260° (W) 01:38:15 437.305
POLYITAN 1 26 May 01:30:36 01:33:39 20° 295° (WNW) 01:36:42 437.675
Oscar 19 26 May 01:33:20 01:37:49 29° 95° (E) 01:42:15 437.125/150
JAS-2 26 May 01:34:42 01:42:17 66° 101° (E) 01:49:04 435.910
ISS 26 May 01:38:07 01:40:38 20° 0° (N) 01:43:08 145.825
PHONESAT 2.4 26 May 01:39:41 01:42:41 45° 183° (S) 01:45:42 2401.200-2431.200
Gurwin Techsat 1B 26 May 01:40:50 01:43:47 15° 89° (E) 01:46:44 435.225
BEESAT 26 May 01:42:53 01:47:24 46° 70° (ENE) 01:51:57 436.000
RS-15 26 May 01:43:32 01:55:35 57° 44° (NE) 02:07:39 29.354- 29.394
NANOSAT C BR1 26 May 01:46:48 01:49:09 15° 298° (WNW) 01:51:30 145.865
YUBILEINY 26 May 02:07:25 02:14:11 24° 63° (ENE) 02:20:56 435.215
ITAMSAT 1 26 May 02:13:12 02:14:17 11° 87° (E) 02:15:21 435.822/435.867
SO-50 26 May 02:37:58 02:42:07 27° 318° (NW) 02:46:16 436.795
SWISSCUBE 26 May 02:50:52 02:55:13 35° 263° (W) 02:59:36 437.505
AO-7 26 May 02:52:24 02:56:31 14° 87° (E) 03:00:36 29.400- 29.500
ITUPSAT 1 26 May 02:55:56 03:00:17 35° 263° (W) 03:04:41 437.325
Cosmos 2491 26 May 03:04:40 03:11:14 24° 79° (E) 03:17:47 435.465 / 435.565
KKS-1 26 May 03:10:36 03:14:52 45° 71° (ENE) 03:19:08 437.445
MOZHAYETS 4 26 May 03:11:57 03:16:02 34° 69° (ENE) 03:20:09
Oscar 19 26 May 03:12:28 03:17:11 37° 293° (WNW) 03:21:52 437.125/150
ISS 26 May 03:14:44 03:17:45 33° 20° (NNE) 03:20:45 145.825
PHONESAT 2.4 26 May 03:16:29 03:19:07 25° 199° (SSW) 03:21:44 2401.200-2431.200
Gurwin Techsat 1B 26 May 03:18:59 03:24:18 74° 287° (WNW) 03:29:36 435.225
JAS-2 26 May 03:20:25 03:26:38 28° 301° (WNW) 03:32:25 435.910
BEESAT 26 May 03:21:54 03:25:25 20° 267° (W) 03:28:56 436.000
ITAMSAT 1 26 May 03:49:14 03:54:30 85° 104° (ESE) 03:59:44 435.822/435.867
STARS 26 May 03:51:29 03:55:52 64° 73° (ENE) 04:00:14 437.465
RS-15 26 May 03:56:27 04:08:08 53° 249° (WSW) 04:19:47 29.354- 29.394
YUBILEINY 26 May 04:03:15 04:12:01 80° 265° (W) 04:20:47 435.215
Cosmos 2504 26 May 04:21:19 04:29:16 45° 74° (ENE) 04:37:33 435.465 / 435.565
HORYU 2 26 May 04:28:24 04:30:41 14° 91° (E) 04:32:58 437.375
CUBESAT XI-V 26 May 04:32:10 04:36:08 28° 67° (ENE) 04:40:08 437.345
AO-7 26 May 04:42:17 04:50:40 73° 106° (ESE) 04:59:02 29.400- 29.500
KKS-1 26 May 04:48:33 04:51:40 18° 268° (W) 04:54:47 437.445
MOZHAYETS 4 26 May 04:49:29 04:53:15 25° 266° (W) 04:57:03
ISS 26 May 04:51:08 04:54:16 45° 219° (SW) 04:57:24 145.825
Cosmos 2491 26 May 04:58:15 05:07:06 77° 280° (W) 05:15:58 435.465 / 435.565
Gurwin Techsat 1B 26 May 05:01:40 05:03:19 11° 305° (NW) 05:04:59 435.225
ITAMSAT 1 26 May 05:30:30 05:33:15 15° 302° (WNW) 05:36:00 435.822/435.867
STARS 26 May 05:30:38 05:32:38 13° 270° (W) 05:34:39 437.465
BRITE-PL 26 May 05:37:41 05:39:19 11° 85° (E) 05:40:56 437.365/2234.400
NOAA 18 26 May 05:48:08 05:51:29 16° 91° (E) 05:54:49 137.9125
YUBILEINY 26 May 06:02:32 06:07:20 16° 285° (WNW) 06:12:10 435.215
HORYU 2 26 May 06:03:15 06:07:38 60° 287° (WNW) 06:12:00 437.375
Cubesat XI-IV 26 May 06:04:25 06:08:09 19° 91° (E) 06:11:53 437.490
NOAA 15 26 May 06:05:44 06:10:16 28° 95° (E) 06:14:45 137.62
CUBESAT XI-V 26 May 06:09:14 06:13:25 32° 264° (W) 06:17:39 437.345
GOMX 1 26 May 06:12:41 06:13:13 10° 85° (E) 06:13:45 467.674
Cosmos 2504 26 May 06:14:52 06:22:35 43° 272° (W) 06:30:40 435.465 / 435.565
AO-85 26 May 06:21:56 06:27:10 48° 117° (ESE) 06:32:19 145.980
LilacSat-2 26 May 06:32:54 06:36:11 28° 96° (E) 06:39:29 437.200
AO-7 26 May 06:35:54 06:42:45 30° 306° (NW) 06:49:37 29.400- 29.500
STRAND 1 26 May 06:43:01 06:47:56 52° 70° (ENE) 06:52:53 437.568
CUTE-I 26 May 06:50:16 06:55:28 49° 100° (E) 07:00:38 437.470
Cosmos 2491 26 May 07:00:11 07:05:37 17° 303° (WNW) 07:11:05 435.465 / 435.565
PRISM 26 May 07:00:42 07:02:42 13° 61° (ENE) 07:04:43 437.425
DOVE 4 26 May 07:08:20 07:11:21 18° 91° (E) 07:14:16 437.250
BRITE-PL 26 May 07:13:22 07:18:39 85° 284° (WNW) 07:23:28 437.365/2234.400
NOAA 18 26 May 07:27:12 07:32:40 71° 288° (WNW) 07:38:08 137.9125
AIST 1 26 May 07:36:06 07:39:09 18° 70° (ENE) 07:42:09
Cubesat XI-IV 26 May 07:43:21 07:48:37 60° 288° (WNW) 07:53:52 437.490
NOAA 15 26 May 07:45:13 07:50:09 40° 292° (WNW) 07:55:03 137.62
GOMX 1 26 May 07:47:16 07:52:05 82° 282° (WNW) 07:56:32 467.674
SO-50 26 May 07:47:42 07:50:15 14° 31° (NNE) 07:52:44 436.795
CINEMA 3 26 May 07:52:07 07:54:31 15° 91° (E) 07:56:53 145.822/145.860
HO-68 26 May 07:56:57 08:02:48 26° 93° (E) 08:08:38 435.675
GONETS M04 26 May 07:57:06 08:04:17 28° 65° (ENE) 08:11:24
AO-85 26 May 08:03:01 08:07:53 32° 316° (NW) 08:12:37 145.980
LilacSat-2 26 May 08:07:27 08:10:22 21° 292° (WNW) 08:13:16 437.200
CANX-2 26 May 08:18:39 08:22:31 32° 96° (E) 08:26:23 2200.000
STRAND 1 26 May 08:23:41 08:27:24 20° 268° (W) 08:31:09 437.568
SEEDS 26 May 08:25:06 08:28:37 24° 94° (E) 08:32:06 437.485
CUTE-I 26 May 08:30:57 08:35:12 25° 297° (WNW) 08:39:28 437.470
PRISM 26 May 08:33:24 08:37:30 63° 259° (WSW) 08:41:40 437.425
DOVE 4 26 May 08:45:07 08:49:20 42° 289° (WNW) 08:53:21 437.250
CUTE 1.7 + AOD 2 26 May 08:46:00 08:50:14 57° 100° (E) 08:54:26 437.475
CUBEBUG 2 26 May 08:52:28 08:55:40 21° 94° (E) 08:58:53 437.445
BRITE-PL 26 May 08:54:04 08:56:10 12° 304° (NW) 08:58:13 437.365/2234.400
ZACube-1 26 May 08:56:28 08:57:23 11° 89° (E) 08:58:17 437.345
Cosmos 2499 26 May 09:01:01 09:08:58 41° 72° (ENE) 09:17:11 435.465 / 435.565
AUBIESAT-1 26 May 09:04:27 09:07:46 81° 105° (ESE) 09:11:04 437.475
UNISAT 6 26 May 09:04:29 09:07:03 16° 63° (ENE) 09:09:37 437.425
M-CUBED/EXP-1 PRIME 26 May 09:09:42 09:12:59 66° 290° (WNW) 09:16:12 437.505
NOAA 18 26 May 09:10:37 09:12:22 12° 306° (NW) 09:14:08 137.9125
TIGRISAT 26 May 09:12:16 09:15:09 18° 64° (ENE) 09:18:00 435.000
AIST 1 26 May 09:12:51 09:16:58 41° 268° (W) 09:21:01
COMPASS 1 26 May 09:13:55 09:18:06 60° 101° (E) 09:22:16 437.405
AAUSAT CUBESAT 2 26 May 09:18:09 09:22:17 53° 100° (E) 09:26:24 437.432
UWE-3 26 May 09:24:13 09:27:59 32° 97° (E) 09:31:47 435.000/436.395/437.385
SO-50 26 May 09:26:58 09:31:41 66° 52° (NE) 09:36:13 436.795
CINEMA 3 26 May 09:27:56 09:31:58 47° 288° (WNW) 09:35:57 145.822/145.860
GOMX 1 26 May 09:28:34 09:29:14 10° 304° (NW) 09:29:54 467.674
FUNcube-1 26 May 09:33:15 09:36:47 26° 95° (E) 09:40:20 145.935
HO-68 26 May 09:43:55 09:50:59 63° 291° (WNW) 09:58:02 435.675
ANTELSAT 26 May 09:44:02 09:48:04 37° 71° (ENE) 09:52:03 437.575/2403.000
O/OREOS (USA 219) 26 May 09:49:54 09:54:21 54° 109° (ESE) 09:58:48 437.305
GONETS M04 26 May 09:53:15 10:01:53 70° 267° (W) 10:10:29
CANX-2 26 May 09:54:47 09:58:14 24° 293° (WNW) 10:01:41 2200.000
SEEDS 26 May 10:00:35 10:04:19 31° 291° (WNW) 10:08:04 437.485
DELFI C3 26 May 10:02:11 10:05:47 30° 96° (E) 10:09:22 145.870
DUCHIFAT 1 26 May 10:09:14 10:11:08 13° 61° (ENE) 10:13:01 145.980
Oscar 11 26 May 10:18:55 10:23:16 82° 286° (WNW) 10:27:37 145.826/435.025
PCSat 26 May 10:20:50 10:26:14 74° 118° (ESE) 10:31:41 145.827
CUTE 1.7 + AOD 2 26 May 10:23:12 10:25:37 15° 297° (WNW) 10:28:02 437.475
CUBEBUG 2 26 May 10:28:40 10:32:23 33° 290° (WNW) 10:36:09 437.445
ZACube-1 26 May 10:29:57 10:34:07 69° 284° (WNW) 10:38:19 437.345
BUGSAT 1 26 May 10:34:39 10:36:05 12° 61° (ENE) 10:37:33 437.445
UNISAT 6 26 May 10:39:03 10:43:22 55° 260° (W) 10:47:37 437.425
POPSAT HIP 1 26 May 10:43:21 10:47:05 31° 69° (ENE) 10:50:48 437.405
QB50P1 26 May 10:43:53 10:47:39 31° 69° (ENE) 10:51:24 145.935-145.965
QB50P2 26 May 10:45:30 10:49:21 34° 70° (ENE) 10:53:12 145.880/145.840
TIGRISAT 26 May 10:47:17 10:51:30 47° 261° (W) 10:55:41 435.000
POLYITAN 1 26 May 10:47:56 10:51:48 35° 70° (ENE) 10:55:39 437.675
COMPASS 1 26 May 10:51:00 10:53:11 14° 297° (WNW) 10:55:21 437.405
HUMSAT D 26 May 10:52:11 10:56:14 50° 100° (E) 11:00:18 437.325/437.525
Cosmos 2499 26 May 10:54:07 11:02:12 49° 271° (W) 11:10:33 435.465 / 435.565
AAUSAT CUBESAT 2 26 May 10:54:55 10:57:21 15° 297° (WNW) 10:59:47 437.432
UWE-3 26 May 11:01:03 11:04:18 23° 293° (WNW) 11:07:35 435.000/436.395/437.385
NANOSAT C BR1 26 May 11:02:52 11:06:56 48° 72° (ENE) 11:11:00 145.865
SO-50 26 May 11:08:49 11:11:36 16° 251° (WSW) 11:14:20 436.795
FUNcube-1 26 May 11:09:26 11:13:00 28° 291° (WNW) 11:16:36 145.935
CUSAT 1 26 May 11:11:04 11:16:27 30° 84° (E) 11:22:46 437.405
AISAT 26 May 11:13:33 11:14:59 11° 89° (E) 11:16:25 437.250
ANTELSAT 26 May 11:21:37 11:24:55 21° 266° (W) 11:28:11 437.575/2403.000
UKube-1 26 May 11:30:29 11:31:30 11° 89° (E) 11:32:30 .
O/OREOS (USA 219) 26 May 11:30:52 11:34:05 19° 307° (NW) 11:37:19 437.305
HO-68 26 May 11:33:58 11:37:20 14° 312° (NW) 11:40:42 435.675
DELFI C3 26 May 11:37:19 11:40:30 23° 293° (WNW) 11:43:41 145.870
DUCHIFAT 1 26 May 11:42:06 11:46:17 66° 257° (WSW) 11:50:30 145.980
ESTCUBE 1 26 May 11:43:09 11:47:19 34° 97° (E) 11:51:28 437.505/2401.250
BEESAT 2 26 May 11:44:13 11:47:19 22° 113° (ESE) 11:50:27 435.950
JAS-2 26 May 11:46:53 11:53:33 38° 63° (ENE) 12:00:35 435.910
GONETS M04 26 May 11:53:23 11:56:59 13° 287° (WNW) 12:00:34
PCSat 26 May 12:06:04 12:10:13 22° 318° (NW) 12:14:23 145.827
BUGSAT 1 26 May 12:06:41 12:10:54 75° 257° (WSW) 12:15:05 437.445
CUBEBUG 1 26 May 12:08:54 12:13:06 44° 99° (E) 12:17:15 437.445
VELOX 1 26 May 12:11:43 12:15:59 45° 99° (E) 12:20:12 145.980
DX 1 26 May 12:11:46 12:15:50 37° 98° (E) 12:19:52 434.975-435.025
POPSAT HIP 1 26 May 12:19:23 12:22:52 24° 265° (W) 12:26:22 437.405
QB50P1 26 May 12:20:00 12:23:26 24° 265° (W) 12:26:54 145.935-145.965
BEESAT 3 26 May 12:21:01 12:24:57 86° 307° (NW) 12:28:56 437.485
QB50P2 26 May 12:21:55 12:25:13 22° 266° (W) 12:28:33 145.880/145.840
POLYITAN 1 26 May 12:24:25 12:27:41 21° 266° (W) 12:30:57 437.675
HUMSAT D 26 May 12:28:59 12:31:29 16° 296° (WNW) 12:33:59 437.325/437.525
DANDE 26 May 12:32:34 12:37:48 59° 93° (E) 12:44:43 436.750
50 SAT 26 May 12:38:09 12:41:51 70° 285° (WNW) 12:45:34 437.505
NANOSAT C BR1 26 May 12:40:21 12:42:56 16° 268° (W) 12:45:31 145.865
SPROUT 26 May 12:42:54 12:46:56 40° 98° (E) 12:50:55 437.525
AISAT 26 May 12:47:33 12:51:58 72° 287° (WNW) 12:56:21 437.250
Oscar 19 26 May 12:51:11 12:56:10 49° 70° (ENE) 13:01:10 437.125/150
CUSAT 1 26 May 12:51:54 12:58:03 54° 287° (WNW) 13:05:36 437.405
Gurwin Techsat 1B 26 May 13:02:37 13:07:04 28° 65° (ENE) 13:11:32 435.225
UKube-1 26 May 13:03:43 13:08:03 73° 285° (WNW) 13:12:20 .
TISAT 1 26 May 13:13:03 13:16:26 23° 95° (E) 13:19:48 437.305
Cosmos 2491 26 May 13:13:18 13:16:42 12° 52° (NE) 13:20:05 435.465 / 435.565
AO-85 26 May 13:14:00 13:16:06 13° 28° (NNE) 13:18:09 145.980
ESTCUBE 1 26 May 13:20:14 13:23:59 26° 294° (WNW) 13:27:42 437.505/2401.250
BEESAT 2 26 May 13:21:16 13:24:58 37° 311° (NW) 13:28:43 435.950
ITAMSAT 1 26 May 13:30:57 13:34:44 21° 61° (ENE) 13:38:32 435.822/435.867
JAS-2 26 May 13:31:11 13:38:15 52° 263° (W) 13:45:53 435.910
AIST 2 26 May 13:41:08 13:44:32 25° 114° (ESE) 13:47:57 435.215
BEESAT 26 May 13:44:51 13:45:20 10° 88° (E) 13:45:50 436.000
CUBEBUG 1 26 May 13:45:57 13:49:04 19° 296° (WNW) 13:52:11 437.445
DX 1 26 May 13:48:27 13:51:48 22° 295° (WNW) 13:55:09 434.975-435.025
VELOX 1 26 May 13:48:59 13:52:08 19° 296° (WNW) 13:55:15 145.980
AO-7 26 May 13:52:15 13:58:49 27° 52° (NE) 14:05:25 29.400- 29.500
BEESAT 3 26 May 14:01:22 14:03:16 13° 324° (NW) 14:05:11 437.485
DANDE 26 May 14:16:42 14:21:22 25° 299° (WNW) 14:27:04 436.750
SPROUT 26 May 14:19:31 14:22:37 20° 295° (WNW) 14:25:42 437.525
Oscar 19 26 May 14:31:43 14:35:43 22° 267° (W) 14:39:45 437.125/150
CUSAT 1 26 May 14:39:53 14:42:19 12° 311° (NW) 14:44:52 437.405
Gurwin Techsat 1B 26 May 14:41:50 14:46:50 41° 262° (W) 14:51:52 435.225
TISAT 1 26 May 14:48:26 14:52:07 31° 291° (WNW) 14:55:47 437.305
SWISSCUBE 26 May 14:49:07 14:53:49 52° 100° (E) 14:58:29 437.505
AO-85 26 May 14:53:06 14:57:47 54° 51° (NE) 15:02:02 145.980
ITUPSAT 1 26 May 14:54:29 14:59:12 52° 101° (E) 15:03:53 437.325
Cosmos 2491 26 May 15:07:09 15:15:49 59° 76° (ENE) 15:24:22 435.465 / 435.565
ITAMSAT 1 26 May 15:08:44 15:13:47 56° 259° (W) 15:18:54 435.822/435.867
YUBILEINY 26 May 15:11:29 15:18:04 25° 80° (E) 15:24:39 435.215
BEESAT 26 May 15:18:57 15:23:46 89° 285° (WNW) 15:28:34 436.000
AIST 2 26 May 15:19:04 15:22:53 35° 312° (NW) 15:26:43 435.215
HORYU 2 26 May 15:27:46 15:30:32 16° 62° (ENE) 15:33:17 437.375
AO-7 26 May 15:42:29 15:50:47 79° 253° (WSW) 15:59:10 29.400- 29.500
STARS 26 May 15:43:11 15:43:12 10° 88° (E) 15:43:14 437.465
RS-15 26 May 16:11:42 16:20:14 26° 100° (E) 16:29:03 29.354- 29.394
SWISSCUBE 26 May 16:27:48 16:31:14 20° 297° (WNW) 16:34:39 437.505
ITUPSAT 1 26 May 16:33:13 16:36:40 20° 297° (WNW) 16:40:05 437.325
AO-85 26 May 16:34:39 16:37:44 18° 251° (WSW) 16:40:39 145.980
KKS-1 26 May 16:36:24 16:40:51 77° 104° (ESE) 16:45:16 437.445
CUTE-I 26 May 16:36:54 16:39:28 14° 57° (ENE) 16:42:02 437.470
MOZHAYETS 4 26 May 16:41:58 16:46:36 68° 102° (ESE) 16:51:13
BRITE-PL 26 May 16:47:50 16:51:46 20° 61° (ENE) 16:55:42 437.365/2234.400
BEESAT 26 May 16:59:06 17:00:49 12° 302° (WNW) 17:02:32 436.000
HORYU 2 26 May 17:02:20 17:06:40 55° 259° (W) 17:11:01 437.375
Cosmos 2504 26 May 17:02:44 17:08:54 32° 84° (E) 17:15:21 435.465 / 435.565
Cosmos 2491 26 May 17:04:44 17:12:08 32° 277° (W) 17:19:29 435.465 / 435.565
YUBILEINY 26 May 17:05:18 17:13:58 73° 280° (W) 17:22:42 435.215
NOAA 18 26 May 17:15:06 17:20:02 36° 66° (ENE) 17:24:58 137.9125
STARS 26 May 17:15:44 17:20:07 78° 285° (WNW) 17:24:28 437.465
LilacSat-2 26 May 17:16:49 17:19:26 18° 66° (ENE) 17:22:04 437.200
GOMX 1 26 May 17:19:34 17:23:11 18° 62° (ENE) 17:26:45 467.674
PCSat 26 May 17:25:10 17:28:36 17° 37° (NE) 17:32:01 145.827
NOAA 15 26 May 17:26:49 17:31:56 51° 70° (ENE) 17:37:05 137.62
Cubesat XI-IV 26 May 17:27:22 17:32:09 36° 67° (ENE) 17:36:58 437.490
AO-7 26 May 17:40:12 17:44:50 16° 272° (W) 17:49:30 29.400- 29.500
CUBESAT XI-V 26 May 18:03:46 18:08:26 57° 100° (E) 18:13:03 437.345
CUTE-I 26 May 18:13:25 18:18:44 89° 74° (ENE) 18:24:05 437.470
DOVE 4 26 May 18:13:59 18:18:16 26° 67° (ENE) 18:22:25 437.250
KKS-1 26 May 18:15:00 18:16:48 12° 300° (WNW) 18:18:35 437.445
AUBIESAT-1 26 May 18:19:19 18:21:16 13° 59° (ENE) 18:23:10 437.475
RS-15 26 May 18:19:36 18:31:00 89° 304° (NW) 18:43:07 29.354- 29.394
O/OREOS (USA 219) 26 May 18:20:21 18:23:13 16° 51° (NE) 18:26:03 437.305
MOZHAYETS 4 26 May 18:20:41 18:23:13 15° 299° (WNW) 18:25:46
M-CUBED/EXP-1 PRIME 26 May 18:23:54 18:26:45 18° 61° (ENE) 18:29:27 437.505
BRITE-PL 26 May 18:24:00 18:29:37 72° 259° (WSW) 18:35:20 437.365/2234.400
HO-68 26 May 18:27:49 18:33:17 24° 56° (NE) 18:38:46 435.675
LilacSat-2 26 May 18:50:01 18:53:31 34° 263° (W) 18:57:01 437.200
STRAND 1 26 May 18:53:23 18:56:27 16° 90° (E) 18:59:32 437.568
CINEMA 3 26 May 18:54:35 18:57:56 20° 65° (ENE) 19:01:12 145.822/145.860
Cosmos 2504 26 May 18:54:58 19:01:55 49° 286° (WNW) 19:09:17 435.465 / 435.565
GOMX 1 26 May 18:55:13 19:00:42 72° 259° (WSW) 19:06:06 467.674
NOAA 18 26 May 18:55:49 19:00:41 33° 263° (W) 19:05:35 137.9125
BEESAT 3 26 May 19:00:56 19:02:48 13° 36° (NE) 19:04:38 437.485
PCSat 26 May 19:07:27 19:12:55 77° 58° (ENE) 19:18:20 145.827
Cubesat XI-IV 26 May 19:07:32 19:12:14 32° 264° (W) 19:16:58 437.490
YUBILEINY 26 May 19:07:34 19:12:32 16° 304° (WNW) 19:17:33 435.215
NOAA 15 26 May 19:07:55 19:11:58 22° 267° (W) 19:16:05 137.62
CANX-2 26 May 19:12:50 19:16:23 27° 68° (ENE) 19:19:58 2200.000
SEEDS 26 May 19:18:29 19:21:35 21° 66° (ENE) 19:24:43 437.485
CUTE 1.7 + AOD 2 26 May 19:39:46 19:43:47 46° 72° (ENE) 19:47:50 437.475
CUBESAT XI-V 26 May 19:42:16 19:45:23 18° 297° (WNW) 19:48:28 437.345
DOVE 4 26 May 19:50:46 19:55:45 42° 262° (W) 20:00:34 437.250
AUBIESAT-1 26 May 19:51:17 19:55:24 61° 254° (WSW) 19:59:15 437.475
CUBEBUG 2 26 May 19:51:56 19:55:21 23° 67° (ENE) 19:58:41 437.445
ZACube-1 26 May 19:54:04 19:55:16 11° 61° (ENE) 19:56:27 437.345
M-CUBED/EXP-1 PRIME 26 May 19:57:02 20:01:05 43° 255° (WSW) 20:04:52 437.505
CUTE-I 26 May 19:57:33 19:59:29 12° 272° (W) 20:01:26 437.470
